FENGYUN 1C DEB, 41830

Orbit data source: Space-Track

FENGYUN 1C DEB, 41830 is space debris in SSO originally from a launch on Mon, 10 May 1999 UTC launched from the Taiyaun Space Center, China (TSC). Fengyun 1C debris stems from the Chinese weather satellite Fengyun-1C, which was intentionally destroyed by a Chinese anti-satellite missile in 2007. This event dramatically increased the amount of space debris, with thousands of trackable fragments posing hazards to satellites and human spaceflight. The Fengyun 1C debris cloud has become a focal point in discussions about space sustainability and the need for international regulations to prevent the creation of new debris.

Loading next visibility...
Identifier
41830, 1999-025EYH
Orbit
SSO
Country
Flag of CNCN / PRC
Related business
Manufacturer
Unknown
Mission
Spacecraft
Bus & Motor
Unknown
Mass
Unknown
Launch date (UTC)
1999-05-10 (27 years ago)
Launch vehicle
Unknown
Launch site
Taiyaun Space Center, China (TSC)
Object type
Payload
Rocket body
Debris
Shape & HBR
Unknown shape, 0.1 m
Radar Cross Section
Small (<0.1 m²)

Expand to show TLE details & history
Last TLE update: 2 days ago

TLE from 2 days ago
0 FENGYUN 1C DEB
1 41830U 99025EYH 26254.00169818  .00002143  00000-0  86377-3 0  9997
2 41830  98.7388 331.0716 0054256 144.2513 216.2320 14.28246973511586
Epoch: 2026-09-11T00:02Z
TLE epoch observation values (Epoch: 2026-09-11T00:02:26.722Z)
Latitude
-0.00001°
Longitude
-19.57106°
Altitude
832.005 km
Speed
7.421 km/s
True Right ascension
22h 04m 17s
True Declination
0° 00' 00"
Sunlit
Object was in full shadow at epoch
Visualization orbit readout
Latitude
Unknown
Longitude
Unknown
Altitude
Unknown
Speed
Unknown
Apparent Right ascension
Unknown
Apparent Declination
Unknown
Sunlit
N/A
Visualization observer readout
Local Sidereal Time
01:48:11
Azimuth
Unknown
Elevation
Unknown
Doppler factor
Unknown
Orbital elements
Apogee altitude
833.663 km
Perigee altitude
755.828 km
Semi-major axis
7,172.882 km
Eccentricity
0.00543
Inclination
98.7388°
RAAN
331.0716°
Arg. of periapsis
144.2513°
True anomaly
215.86653°
Mean anomaly
216.232°
Eccentric anomaly
216.04906°
Mean motion
3.57275 °/min
Orbital period
100.76 mins
BSTAR
0.00086377
Loading maneuver chart data...
Computing Atmospheric mass density...

Documentation

Showing up to 5 results
|